Location: Newark
(43.6583°N, 1.6617°E)
Time: 09:40:31
(UTC+00:00)

Vanguard 1 Rocket - Pass Details

Date: 26 August 2019
Orbit: 650 x 4226 km, 34.3° (Epoch: 20 October)

Event Time Altitude Azimuth Distance (km) Brightness Sun altitude
Rises 07:43:52 0° 254° (WSW) 3,988 10.2 26.7°
Reaches altitude 10° 07:48:46 10° 224° (SW) 3,640 10.3 27.6°
Maximum altitude 07:51:53 12° 204° (SSW) 3,884 10.6 28.2°
Drops below altitude 10° 07:55:36 10° 186° (S) 4,512 11.1 28.8°
Sets 08:04:13 0° 161° (SSE) 6,535 12.2 30.3°
